[[{"header":{"parameterUnit":"m.s-1","parameterCategory":1,"la1":30.2991,"la2":30.254,"lo1":-89.0895,"lo2":-89.0444,"dy":0.0017,"dx":0.0017,"nx":28,"ny":28,"refTime":"2025-09-02T21:00:00:Z","depth":0,"parameterNumber":2,"parameterNumberName":"U-component_of_WINDS"},"data":[0,0,0,0,0,0,0,0,0,0,0,0,0,0,0,0,0,0,0,0,0,0,0,0,0,0,0,0,0,0,0,0,0,0,0,0,0,0,0,0,0,0,0,0,0,0,0,0,0,0,0,0,0,0,0,0,0,0,-0.5048,-0.5048,0,-0.5057,-0.5058,-0.5058,-0.5024,-0.5023,-0.5022,-0.5021,-0.5032,-0.5033,-0.5034,0,0,0,0,0,0,0,0,0,0,0,0,0,-0.5002,-0.5003,-0.5048,-0.5048,-0.5048,-0.5057,-0.5058,-0.5058,-0.5024,-0.5023,-0.5021,-0.502,-0.5031,-0.5033,-0.5034,0,0,0,0,0,0,0,0,0,0,0,0,0,-0.5018,-0.5004,-0.5048,-0.5033,-0.5031,-0.5057,-0.5058,-0.5058,-0.5024,-0.5023,-0.5021,-0.502,-0.5031,-0.5033,-0.5034,-0.5076,0,0,-0.504,-0.5041,0,0,0,0,0,0,0,0,-0.5017,-0.502,-0.5035,-0.5034,-0.5032,-0.5038,-0.5045,-0.5064,-0.5024,-0.5027,-0.5021,-0.5019,-0.5035,-0.5036,-0.5042,-0.5077,-0.5077,-0.504,-0.5041,-0.5042,-0.5043,0,0,0,0,0,0,0,-0.5016,-0.5019,-0.5052,-0.5035,-0.5034,-0.5025,-0.5026,-0.5049,-0.5039,-0.5027,-0.5024,-0.5026,-0.5034,-0.504,-0.5042,-0.5078,-0.504,-0.5042,-0.5043,-0.5044,-0.5148,-0.5149,0,0,0,0,0,0,-0.5017,-0.5019,-0.5052,-0.5052,-0.5021,-0.5028,-0.5028,-0.5038,-0.5039,-0.5038,-0.5027,-0.5024,-0.5037,-0.5039,-0.5042,-0.5091,-0.5042,-0.5044,-0.5045,-0.5146,-0.5148,-0.515,0,0,0,0,0,0,-0.5016,-0.502,-0.5051,-0.5035,-0.5038,-0.503,-0.5041,-0.5039,-0.5044,-0.5039,-0.5038,-0.5034,-0.5036,-0.5039,-0.5068,-0.5091,-0.5045,-0.5046,-0.5144,-0.5147,-0.5149,-0.519,0,0,0,0,0,0,-0.5015,-0.502,-0.5036,-0.5035,-0.5039,-0.5077,-0.5042,-0.504,-0.5047,-0.5044,-0.5046,-0.5045,-0.5035,-0.5065,-0.507,-0.5093,-0.5048,-0.5142,-0.5145,-0.5148,-0.5187,-0.5194,-0.52,0,0,0,0,0,-0.5013,-0.5048,-0.5037,-0.5041,-0.5058,-0.5078,-0.5081,-0.5069,-0.5049,-0.5065,-0.5062,-0.5045,-0.5088,-0.5069,-0.5073,-0.5097,-0.5141,-0.5144,-0.5148,-0.5184,-0.5193,-0.52,0,0,0,0,0,0,-0.5052,-0.5047,-0.5035,-0.507,-0.5075,-0.5073,-0.5092,-0.5078,-0.5089,-0.5085,-0.507,-0.507,-0.5102,-0.5102,-0.5081,-0.5138,-0.5111,-0.5116,-0.5137,-0.5145,-0.5151,-0.5151,-0.5049,0,0,0,0,0,-0.5064,-0.508,-0.5076,-0.5107,-0.511,-0.5101,-0.5109,-0.5099,-0.5104,-0.5106,-0.5104,-0.511,-0.5124,-0.5135,-0.5148,-0.5186,-0.5187,-0.5205,-0.5212,-0.5217,-0.5222,-0.5242,-0.5251,-0.5162,-0.5162,-0.5162,0,0,-0.509,-0.509,-0.5101,-0.5115,-0.5117,-0.5135,-0.5103,-0.5123,-0.5136,-0.5109,-0.5136,-0.5135,-0.514,-0.5174,-0.5189,-0.5175,-0.5246,-0.5222,-0.5226,-0.5228,-0.5247,-0.5255,-0.5263,-0.5165,-0.5164,-0.5164,0,0,-0.5147,-0.5148,-0.5174,-0.5177,-0.5181,-0.5174,-0.5181,-0.518,-0.5179,-0.5205,-0.5186,-0.5201,-0.5226,-0.5231,-0.5236,-0.5294,-0.5278,-0.5298,-0.5333,-0.5353,-0.536,-0.5366,-0.5387,-0.5395,-0.5303,-0.5303,-0.5303,0,-0.5179,-0.5204,-0.5189,-0.521,-0.5217,-0.5193,-0.5219,-0.5223,-0.5231,-0.5237,-0.5221,-0.5252,-0.5254,-0.5288,-0.5302,-0.5308,-0.5315,-0.5298,-0.536,-0.5366,-0.5372,-0.5391,-0.5399,-0.5305,-0.5305,-0.5305,-0.5305,0,-0.5243,-0.5261,-0.5282,-0.529,-0.5299,-0.5322,-0.5311,-0.5322,-0.5311,-0.5307,-0.5334,-0.5335,-0.5348,-0.5355,-0.5345,-0.5389,-0.538,-0.5363,-0.5335,-0.5383,-0.5401,-0.5408,-0.5309,-0.5308,-0.5307,-0.5307,0,0,-0.5325,-0.5324,-0.5332,-0.5335,-0.5337,-0.5351,-0.5374,-0.5385,-0.5395,-0.5402,-0.542,-0.5442,-0.5426,-0.5432,-0.5422,-0.544,-0.5485,-0.542,-0.542,-0.5432,-0.5533,-0.5547,-0.5556,-0.5475,-0.5476,-0.5477,-0.5533,0,-0.5381,-0.5419,-0.5406,-0.5445,-0.5462,-0.5438,-0.5458,-0.5462,-0.5458,-0.5471,-0.5467,-0.5483,-0.546,-0.5463,-0.548,-0.5476,-0.5506,-0.5472,-0.5493,-0.5494,-0.5493,-0.5565,-0.558,-0.5633,-0.554,-0.5541,-0.5542,0,-0.5452,-0.546,-0.5501,-0.5499,-0.5506,-0.5524,-0.5534,-0.5547,-0.555,-0.5546,-0.5553,-0.5539,-0.5561,-0.5533,-0.5564,-0.5541,-0.5549,-0.5548,-0.555,-0.5552,-0.5521,-0.557,-0.5649,-0.5658,-0.5553,-0.5552,-0.5552,0,-0.5508,-0.5529,-0.5556,-0.556,-0.5559,-0.5572,-0.5573,-0.5575,-0.5582,-0.5591,-0.5596,-0.5607,-0.5614,-0.5623,-0.5612,-0.5593,-0.5645,-0.5616,-0.5643,-0.5643,-0.5655,-0.5655,-0.5738,-0.5659,-0.5659,-0.5659,-0.5659,0,-0.5572,-0.5598,-0.5582,-0.5598,-0.5627,-0.5611,-0.564,-0.5637,-0.5639,-0.5655,-0.5636,-0.5651,-0.5636,-0.5651,-0.5643,-0.5669,-0.5672,-0.567,-0.5668,-0.5672,-0.5673,-0.5677,-0.5674,-0.5661,-0.5661,-0.566,-0.566,0,-0.564,-0.563,-0.5658,-0.5655,-0.5655,-0.5676,-0.5673,-0.5688,-0.5682,-0.5703,-0.5707,-0.5698,-0.5714,-0.5704,-0.572,-0.5715,-0.575,-0.5742,-0.5749,-0.5747,-0.5774,-0.5772,-0.5864,-0.5875,-0.5789,-0.579,-0.579,0,-0.5682,-0.5702,-0.57,-0.5709,-0.5711,-0.5725,-0.5733,-0.5719,-0.5727,-0.5733,-0.5748,-0.5761,-0.5772,-0.5798,-0.5793,-0.5805,-0.5798,-0.5829,-0.58,-0.5804,-0.5799,-0.5799,-0.5801,-0.5836,-0.5837,-0.5838,-0.5838,0,-0.5758,-0.5752,-0.5764,-0.5773,-0.5783,-0.579,-0.5796,-0.5804,-0.579,-0.5801,-0.5816,-0.5824,-0.584,-0.5854,-0.5864,-0.5865,-0.585,-0.5847,-0.5854,-0.5859,-0.5863,-0.5862,-0.5766,-0.5846,-0.5845,-0.5844,-0.5844,-0.5844,-0.5815,-0.5831,-0.5832,-0.5846,-0.5848,-0.5854,-0.5868,-0.5863,-0.5876,-0.5887,-0.5878,-0.5896,-0.5899,-0.5911,-0.5913,-0.5928,-0.5915,-0.5925,-0.5928,-0.5931,-0.5935,-0.586,-0.5929,-0.5929,-0.5929,-0.5929,-0.5929,0,-0.589,-0.589,-0.5902,-0.591,-0.5921,-0.5904,-0.5909,-0.5919,-0.5936,-0.5939,-0.5949,-0.5967,-0.598,-0.5976,-0.5988,-0.6001,-0.5994,-0.6005,-0.6004,-0.6004,-0.5945,-0.5938,-0.601,-0.601,-0.601,-0.601,-0.601,-0.601,-0.5931,-0.5957,-0.5951,-0.5978,-0.5977,-0.5994,-0.5999,-0.6004,-0.6006,-0.6027,-0.6038,-0.6034,-0.6035,-0.6047,-0.6058,-0.6057,-0.6062,-0.6076,-0.6072,-0.6016,-0.6009,-0.6001,-0.5994,-0.6077,-0.6077,-0.613,-0.613,-0.6131]},{"header":{"parameterUnit":"m.s-1","parameterCategory":1,"la1":30.2991,"la2":30.254,"lo1":-89.0895,"lo2":-89.0444,"dy":0.0017,"dx":0.0017,"nx":28,"ny":28,"refTime":"2025-09-02T21:00:00:Z","depth":0,"parameterNumber":3,"parameterNumberName":"V-component_of_WINDS"},"data":[0,0,0,0,0,0,0,0,0,0,0,0,0,0,0,0,0,0,0,0,0,0,0,0,0,0,0,0,0,0,0,0,0,0,0,0,0,0,0,0,0,0,0,0,0,0,0,0,0,0,0,0,0,0,0,0,0,0,0.5379,0.5378,0,0.5276,0.5275,0.5274,0.5204,0.5203,0.5203,0.5203,0.5093,0.5091,0.5088,0,0,0,0,0,0,0,0,0,0,0,0,0,0.5511,0.5509,0.5379,0.5378,0.5377,0.5276,0.5275,0.5274,0.5204,0.5203,0.5203,0.5202,0.5094,0.5091,0.5088,0,0,0,0,0,0,0,0,0,0,0,0,0,0.5436,0.5509,0.5379,0.533,0.5325,0.5277,0.5275,0.5273,0.5204,0.5203,0.5203,0.5202,0.5095,0.5091,0.5088,0.5079,0,0,0.5076,0.5075,0,0,0,0,0,0,0,0,0.544,0.5431,0.5339,0.5333,0.5327,0.5252,0.5281,0.5208,0.5204,0.525,0.5203,0.5202,0.5146,0.5138,0.512,0.5074,0.507,0.5076,0.5074,0.5072,0.5071,0,0,0,0,0,0,0,0.5445,0.5435,0.5338,0.5337,0.533,0.5312,0.53,0.5267,0.5203,0.5246,0.524,0.5229,0.5143,0.5124,0.5117,0.5068,0.5076,0.5073,0.507,0.5069,0.5008,0.5009,0,0,0,0,0,0,0.5459,0.544,0.5342,0.5335,0.5383,0.531,0.5297,0.5277,0.5203,0.5192,0.523,0.5227,0.5131,0.5122,0.5113,0.5098,0.5072,0.5069,0.5067,0.5008,0.5009,0.5009,0,0,0,0,0,0,0.5462,0.5451,0.5346,0.5386,0.5371,0.5308,0.5287,0.5275,0.5256,0.5192,0.518,0.5223,0.513,0.5118,0.5088,0.5093,0.5067,0.5064,0.5007,0.5008,0.5009,0.5068,0,0,0,0,0,0,0.5466,0.5453,0.545,0.5387,0.5369,0.5324,0.5287,0.5274,0.5251,0.5245,0.5182,0.5171,0.5128,0.5094,0.5085,0.5088,0.5061,0.5006,0.5008,0.5009,0.5066,0.5071,0.5076,0,0,0,0,0,0.5471,0.547,0.545,0.5439,0.5365,0.5325,0.5314,0.5267,0.5252,0.5247,0.5206,0.5173,0.5095,0.5092,0.508,0.5082,0.5006,0.5007,0.5009,0.5063,0.507,0.5076,0,0,0,0,0,0,0.5534,0.5461,0.5438,0.5416,0.5378,0.5313,0.5306,0.5276,0.524,0.5236,0.5177,0.5164,0.5139,0.5108,0.5106,0.507,0.5046,0.5045,0.5092,0.5097,0.5103,0.511,0.5058,0,0,0,0,0,0.5546,0.5521,0.5457,0.5444,0.5426,0.537,0.535,0.5318,0.5274,0.5257,0.5213,0.5171,0.5137,0.5115,0.508,0.5061,0.5045,0.5057,0.5062,0.5066,0.5066,0.5052,0.5056,0.5014,0.5014,0.5014,0,0,0.5569,0.5526,0.5513,0.5456,0.5422,0.5395,0.5356,0.533,0.531,0.5252,0.5221,0.5188,0.5137,0.5112,0.5099,0.5085,0.5074,0.5068,0.5072,0.5069,0.5054,0.5058,0.5061,0.5015,0.5014,0.5014,0,0,0.5598,0.5564,0.5548,0.5515,0.5465,0.5427,0.5424,0.5364,0.5339,0.5308,0.5264,0.5238,0.5181,0.5146,0.5121,0.5137,0.5104,0.5127,0.5153,0.514,0.5144,0.5146,0.5151,0.5153,0.5127,0.5127,0.5127,0,0.5633,0.5593,0.5544,0.5521,0.5496,0.5445,0.5428,0.5398,0.5338,0.5321,0.5307,0.5234,0.5196,0.5162,0.5166,0.5147,0.514,0.5133,0.5147,0.515,0.5151,0.5155,0.5157,0.513,0.513,0.5129,0.5129,0,0.5638,0.5611,0.5604,0.5549,0.5524,0.5504,0.5451,0.5431,0.54,0.5364,0.5332,0.5285,0.5239,0.5228,0.5198,0.5189,0.5182,0.5159,0.5133,0.5159,0.5161,0.5162,0.5134,0.5133,0.5132,0.5132,0,0,0.5703,0.5621,0.562,0.5594,0.5534,0.5511,0.5488,0.5445,0.5428,0.5389,0.5367,0.532,0.5297,0.5269,0.5234,0.5223,0.5237,0.52,0.5198,0.5208,0.5223,0.5241,0.5244,0.5215,0.5216,0.5216,0.5227,0,0.5722,0.568,0.5635,0.5608,0.5582,0.5532,0.5512,0.5473,0.5438,0.5409,0.537,0.5338,0.5311,0.5293,0.528,0.5238,0.5239,0.5237,0.5193,0.5192,0.5207,0.5245,0.5263,0.5277,0.5228,0.5228,0.5228,0,0.5739,0.5702,0.5673,0.5615,0.5602,0.5585,0.5541,0.5515,0.5469,0.5444,0.5413,0.5376,0.5348,0.5326,0.5286,0.5285,0.5265,0.5241,0.5241,0.5234,0.5211,0.5238,0.528,0.5282,0.5229,0.5229,0.5229,0,0.5788,0.5732,0.5707,0.5686,0.5618,0.5607,0.5578,0.5531,0.5508,0.5469,0.5453,0.5411,0.5388,0.5355,0.5307,0.5297,0.5272,0.5247,0.5249,0.5251,0.5245,0.5246,0.5284,0.5234,0.5234,0.5234,0.5234,0,0.5814,0.5797,0.5728,0.5713,0.5692,0.5641,0.5622,0.5588,0.5547,0.5522,0.5477,0.5455,0.5393,0.5364,0.5326,0.5298,0.5288,0.5266,0.5256,0.5269,0.5272,0.5254,0.5252,0.5235,0.5235,0.5234,0.5234,0,0.5865,0.5818,0.5788,0.5726,0.571,0.5698,0.5644,0.5627,0.559,0.556,0.555,0.5491,0.5454,0.5403,0.535,0.5324,0.53,0.5285,0.5317,0.5311,0.5316,0.5316,0.5342,0.5343,0.5295,0.5295,0.5296,0,0.5884,0.587,0.5808,0.5789,0.5762,0.5732,0.5708,0.5656,0.5633,0.5579,0.5567,0.5527,0.5492,0.5434,0.5386,0.5344,0.5327,0.5339,0.532,0.5334,0.5326,0.5327,0.5325,0.5344,0.5344,0.5345,0.5346,0,0.5922,0.59,0.5868,0.5827,0.58,0.5766,0.5729,0.5716,0.5656,0.5632,0.5594,0.5567,0.5513,0.5472,0.5425,0.5393,0.5359,0.5352,0.535,0.5364,0.5382,0.5371,0.5328,0.5352,0.5351,0.535,0.535,0.535,0.5957,0.5942,0.5896,0.5861,0.5828,0.5795,0.5775,0.5736,0.5704,0.5657,0.5628,0.5591,0.5544,0.5476,0.5446,0.5415,0.5402,0.54,0.5399,0.5399,0.5403,0.5388,0.5406,0.5406,0.5406,0.5406,0.5406,0,0.5992,0.596,0.5929,0.5879,0.5852,0.5824,0.5781,0.576,0.5728,0.5688,0.5654,0.561,0.5571,0.552,0.5476,0.5462,0.5445,0.5452,0.5452,0.5445,0.5418,0.5423,0.5466,0.5466,0.5466,0.5466,0.5466,0.5466,0.6007,0.598,0.5952,0.5909,0.5876,0.584,0.5818,0.5787,0.5754,0.5707,0.5675,0.5642,0.5597,0.555,0.5512,0.5498,0.5484,0.5496,0.5477,0.5452,0.5447,0.5442,0.5446,0.5493,0.5493,0.5506,0.5506,0.5506]}]]